sat.trackr.live / text

‹ back to catalog

STARLINK-31074

NORAD 58601 · 2023-200N

PAYLOAD ACTIVE UNKNOWN

§ Identity

Operator
Country
US
Launch date
2023-12-19
Launch site
AFETR
Launch vehicle
Mass (kg)
RCS (m²)

Purposes: comms

External: N2YO · Heavens-Above · Gunter

§ Orbital elements

Epoch: 2026-05-24T22:21:36.029664Z

Period
94.27 min
Inclination
43.0036°
Eccentricity
0.0001843
Mean motion
15.27563461 rev/d
Perigee alt
481.8 km
Apogee alt
484.4 km
Semi-major
6,861.2 km
B*
-1.7043e-5
RAAN
98.0563°
Arg perigee
296.3365°
Mean anomaly
63.7297°
Rev number
13,527

§ Raw data

STARLINK-310741 58601U 23200N   26144.93166701 -.00000731  00000+0 -17043-4 0  99982 58601  43.0036  98.0563 0001843 296.3365  63.7297 15.27563461135271

JSON: /api/v1/satellites/58601 · /tle

For live sub-satellite position, see the globe view (requires WebGL).

§ Visibility from observer

Set your observer location to see the next 7 days of passes ≥ 10°. The values pass through the URL so the page stays shareable.

No JS? Fill the form by hand. The geolocation button needs JavaScript.